GW0914 Weather Reports


time (UTC)temp
F
wind
direction
speed
knots
gust
knots
rain 1hr
in
rain 24hr
in
rain mn
in
humidity
%
barometer
mb
20260507010156 50 256 0.9 0.9 0.00 0.38 0.38 66 1010.4
20260507005654 50 271 0.9 0.9 0.00 0.38 0.38 65 1010.3
20260507005154 50 269 0.9 0.9 0.00 0.38 0.38 66 1010.1
20260507004652 50 267 0.9 0.9 0.00 0.38 0.38 67 1010.1
20260507004149 50 270 0.9 1.7 0.00 0.38 0.38 68 1009.9
20260507003646 50 260 0.0 0.9 0.00 0.38 0.38 68 1009.9
20260507003145 50 275 0.9 1.7 0.00 0.38 0.38 68 1009.7
20260507002642 51 260 0.0 0.9 0.00 0.38 0.38 69 1010.0
20260507002138 51 260 0.9 0.9 0.00 0.38 0.38 66 1009.8
20260507001635 51 260 0.0 0.9 0.00 0.38 0.38 65 1009.8
20260507001132 51 283 1.7 1.7 0.00 0.38 0.38 65 1009.6
20260507000629 51 262 0.9 0.9 0.00 0.38 0.38 65 1009.7
20260507000124 52 288 1.7 1.7 0.00 0.38 0.38 64 1009.7
20260506235622 52 282 1.7 1.7 0.00 0.38 0.38 64 1009.7
20260506235122 52 270 0.9 0.9 0.00 0.38 0.38 63 1009.6
20260506234619 52 273 0.9 1.7 0.00 0.38 0.38 64 1009.6
20260506234116 52 260 0.9 0.9 0.00 0.38 0.38 64 1009.6
20260506233613 52 291 0.9 1.7 0.00 0.38 0.38 63 1009.4
20260506233110 52 283 1.7 1.7 0.00 0.38 0.38 64 1009.6
20260506232606 52 278 1.7 1.7 0.00 0.38 0.38 64 1009.8
20260506232102 52 286 2.6 2.6 0.00 0.38 0.38 61 1009.9
20260506231559 52 277 0.9 0.9 0.00 0.38 0.38 64 1009.9
20260506231057 52 257 0.9 0.9 0.00 0.38 0.38 64 1010.0
20260506230553 53 292 2.6 2.6 0.00 0.38 0.38 61 1009.9
20260506230051 53 272 0.9 0.9 0.00 0.38 0.38 61 1009.7
20260506225547 53 282 0.9 1.7 0.00 0.38 0.38 62 1010.0
20260506225044 53 271 0.9 0.9 0.00 0.38 0.38 60 1010.1
20260506224541 53 302 2.6 4.3 0.00 0.38 0.38 59 1010.1
20260506224037 53 279 0.9 1.7 0.00 0.38 0.38 61 1010.1
20260506223533 53 252 3.5 4.3 0.00 0.38 0.38 62 1010.4
20260506223030 53 260 1.7 2.6 0.00 0.38 0.38 61 1010.0
20260506222527 53 273 0.9 1.7 0.00 0.38 0.38 62 1010.0
20260506222023 53 272 2.6 2.6 0.00 0.38 0.38 62 1010.1
20260506221521 53 262 0.0 0.9 0.00 0.38 0.38 63 1009.7
20260506221019 53 283 2.6 2.6 0.00 0.38 0.38 60 1009.6
20260506220514 53 283 1.7 1.7 0.00 0.38 0.38 60 1009.6
20260506220010 54 291 1.7 1.7 0.00 0.38 0.38 61 1009.5
20260506215507 54 307 2.6 2.6 0.00 0.38 0.38 60 1009.6
20260506215003 53 267 0.9 0.9 0.00 0.38 0.38 61 1009.3
20260506214500 53 282 2.6 4.3 0.00 0.38 0.38 59 1009.4
20260506213957 54 276 1.7 1.7 0.00 0.38 0.38 61 1009.5
20260506213455 54 290 1.7 1.7 0.00 0.38 0.38 59 1009.2
20260506212952 54 274 1.7 1.7 0.00 0.38 0.38 60 1009.1
20260506212448 55 292 2.6 2.6 0.00 0.38 0.38 58 1009.2
20260506211943 54 280 1.7 1.7 0.00 0.38 0.38 61 1009.1
20260506211439 55 307 2.6 2.6 0.00 0.38 0.38 61 1009.0
20260506210937 54 271 0.9 1.7 0.00 0.38 0.38 62 1009.2
20260506210433 54 274 1.7 1.7 0.00 0.38 0.38 64 1009.2
20260506205931 54 309 0.9 0.9 0.00 0.38 0.38 62 1009.2
20260506205427 55 272 1.7 1.7 0.00 0.38 0.38 61 1009.1
20260506204923 55 280 1.7 1.7 0.00 0.38 0.38 66 1008.9
20260506204421 55 267 2.6 2.6 0.00 0.38 0.38 62 1008.9
20260506203918 55 299 1.7 1.7 0.00 0.38 0.38 62 1009.0
20260506203415 55 305 2.6 2.6 0.00 0.38 0.38 63 1008.8
20260506202912 54 310 2.6 2.6 0.00 0.38 0.38 63 1008.9
20260506202409 55 317 3.5 4.3 0.00 0.38 0.38 60 1008.9
20260506201905 55 281 1.7 2.6 0.00 0.38 0.38 63 1008.7
20260506201403 55 315 2.6 2.6 0.00 0.38 0.38 62 1008.7
20260506200859 55 17 2.6 2.6 0.00 0.38 0.38 61 1008.8
20260506200355 56 271 1.7 1.7 0.00 0.38 0.38 65 1008.7
20260506195852 56 262 0.9 1.7 0.00 0.38 0.38 64 1008.8
20260506195349 56 2 2.6 4.3 0.00 0.38 0.38 62 1008.8
20260506194846 56 296 5.2 6.1 0.00 0.38 0.38 59 1008.6
20260506194343 57 5 0.9 1.7 0.00 0.38 0.38 63 1008.6
20260506193840 56 297 2.6 4.3 0.00 0.38 0.38 62 1008.7
20260506193337 56 260 2.6 2.6 0.00 0.38 0.38 60 1008.7
20260506192833 57 294 5.2 6.1 0.00 0.38 0.38 59 1008.5
20260506192330 57 270 0.9 0.9 0.00 0.38 0.38 61 1008.4
20260506191827 57 335 1.7 2.6 0.00 0.38 0.38 63 1008.7
20260506191323 57 292 4.3 5.2 0.00 0.38 0.38 62 1008.6
20260506190820 57 290 0.9 0.9 0.00 0.38 0.38 57 1008.6
20260506190317 57 271 2.6 2.6 0.00 0.38 0.38 59 1008.7
20260506185814 58 296 1.7 1.7 0.00 0.38 0.38 58 1008.6
20260506185311 57 303 3.5 4.3 0.00 0.38 0.38 56 1008.6
20260506184808 58 14 1.7 1.7 0.00 0.38 0.38 63 1008.6
20260506184305 58 291 2.6 4.3 0.00 0.38 0.38 60 1008.7
20260506183802 57 292 1.7 2.6 0.00 0.38 0.38 62 1008.8
20260506183257 57 282 3.5 4.3 0.00 0.38 0.38 58 1008.7
20260506182754 57 308 2.6 2.6 0.00 0.38 0.38 57 1008.8
20260506182252 57 306 2.6 2.6 0.00 0.38 0.38 61 1008.6
20260506181750 57 289 1.7 1.7 0.00 0.38 0.38 59 1008.5
20260506181247 57 275 0.9 1.7 0.00 0.38 0.38 60 1008.8
20260506180744 57 276 1.7 1.7 0.00 0.38 0.38 54 1008.9
20260506180240 57 297 2.6 2.6 0.00 0.38 0.38 61 1008.8
20260506175736 57 329 2.6 2.6 0.00 0.38 0.38 61 1008.7
20260506175233 57 274 4.3 5.2 0.00 0.38 0.38 59 1008.9
20260506174731 57 299 2.6 2.6 0.00 0.38 0.38 61 1008.9
20260506174227 57 265 2.6 2.6 0.00 0.38 0.38 59 1008.9
20260506173725 56 282 1.7 2.6 0.00 0.38 0.38 62 1008.9
20260506173222 56 312 4.3 5.2 0.00 0.38 0.38 63 1008.9
20260506172719 57 279 2.6 2.6 0.00 0.38 0.38 64 1008.8
20260506172215 57 318 2.6 2.6 0.00 0.38 0.38 64 1008.9
20260506171713 57 281 2.6 2.6 0.00 0.38 0.38 66 1008.8
20260506171210 57 329 1.7 1.7 0.00 0.38 0.38 63 1008.9
20260506170708 57 292 2.6 2.6 0.00 0.38 0.38 62 1008.7
20260506170204 57 351 2.6 4.3 0.00 0.38 0.38 64 1008.6
20260506165703 56 255 0.9 1.7 0.00 0.38 0.38 62 1008.6
20260506165159 56 322 1.7 1.7 0.00 0.38 0.38 66 1008.8
20260506164656 55 258 0.9 1.7 0.00 0.38 0.38 69 1008.9
20260506164154 56 307 4.3 5.2 0.00 0.38 0.38 67 1009.0
20260506163650 56 278 0.9 1.7 0.00 0.38 0.38 63 1009.1
20260506163145 56 265 2.6 2.6 0.00 0.38 0.38 66 1008.8
20260506162641 55 299 2.6 2.6 0.00 0.38 0.38 67 1008.9
20260506162139 55 15 2.6 2.6 0.00 0.38 0.38 72 1008.7
20260506161636 55 286 1.7 1.7 0.00 0.38 0.38 73 1008.7
20260506161133 54 289 0.9 1.7 0.00 0.38 0.38 72 1008.6
20260506160630 54 281 0.9 0.9 0.00 0.38 0.38 75 1008.6
20260506160127 53 280 0.9 0.9 0.00 0.38 0.38 74 1008.6
20260506155626 53 280 1.7 1.7 0.00 0.38 0.38 71 1008.8
20260506155122 51 292 1.7 1.7 0.00 0.38 0.38 76 1008.3
20260506153224 52 294 2.6 4.3 0.00 0.38 0.38 77 1008.3
20260506152721 51 287 1.7 1.7 0.00 0.38 0.38 75 1008.4
20260506152219 51 292 2.6 2.6 0.00 0.38 0.38 76 1008.4
20260506151718 51 300 1.7 1.7 0.00 0.38 0.38 75 1008.1
20260506151214 51 315 2.6 2.6 0.00 0.38 0.38 78 1008.0
20260506150710 51 338 0.9 1.7 0.00 0.38 0.38 78 1008.0
20260506150207 51 263 0.9 1.7 0.00 0.38 0.38 80 1008.0
20260506145704 50 317 0.9 1.7 0.00 0.38 0.38 84 1008.4
20260506145201 50 319 1.7 2.6 0.00 0.38 0.38 82 1008.0
20260506144659 50 295 1.7 1.7 0.00 0.38 0.38 86 1008.2
20260506144155 50 298 2.6 2.6 0.00 0.38 0.38 86 1007.6
20260506143653 50 276 0.9 1.7 0.00 0.38 0.38 88 1007.6
20260506143151 49 277 2.6 2.6 0.00 0.38 0.38 88 1007.5
20260506142649 49 293 2.6 2.6 0.00 0.38 0.38 86 1007.8
20260506142146 48 322 1.7 1.7 0.00 0.38 0.38 89 1007.4
20260506141644 48 301 2.6 2.6 0.00 0.38 0.38 93 1007.1
20260506141142 47 312 2.6 2.6 0.00 0.38 0.38 96 1007.4
20260506140639 46 291 1.7 1.7 0.00 0.38 0.38 98 1007.5
20260506140136 47 274 0.9 0.9 0.00 0.38 0.38 99 1007.2
20260506135633 46 290 1.7 1.7 0.00 0.38 0.38 99 1007.0
20260506135129 46 338 2.6 2.6 0.00 0.38 0.38 99 1007.1
20260506134626 46 310 1.7 2.6 0.00 0.38 0.38 99 1007.1
20260506134122 46 349 0.9 0.9 0.00 0.38 0.38 99 1006.9
20260506133619 46 261 0.9 0.9 0.00 0.38 0.38 99 1006.8
20260506133116 45 287 0.9 0.9 0.00 0.38 0.38 99 1007.1
20260506132614 45 269 1.7 1.7 0.00 0.38 0.38 99 1006.9
20260506132110 44 323 1.7 1.7 0.00 0.38 0.38 99 1007.1
20260506131608 45 282 0.9 1.7 0.00 0.38 0.38 99 1007.0
20260506131104 45 278 1.7 1.7 0.00 0.38 0.38 99 1007.2
20260506130601 45 293 1.7 1.7 0.00 0.38 0.38 99 1007.1
20260506130059 45 265 0.9 0.9 0.00 0.38 0.38 99 1006.9
20260506125557 45 273 2.6 2.6 0.00 0.38 0.38 99 1006.9
20260506125054 45 276 0.9 0.9 0.00 0.38 0.38 99 1006.8
20260506124552 46 317 0.9 0.9 0.00 0.38 0.38 99 1006.4
20260506124049 46 265 0.0 0.9 0.00 0.38 0.38 99 1006.2
20260506123547 46 290 0.9 0.9 0.00 0.38 0.38 99 1005.8
20260506123045 46 300 0.9 0.9 0.00 0.38 0.38 99 1005.9
20260506122541 45 282 0.9 0.9 0.00 0.38 0.38 99 1005.9
20260506122040 45 297 0.0 0.9 0.00 0.38 0.38 99 1006.0
20260506121537 45 267 0.9 0.9 0.00 0.38 0.38 99 1006.1
20260506121033 45 275 0.9 0.9 0.00 0.38 0.38 99 1006.3
20260506120531 45 279 0.9 0.9 0.00 0.38 0.38 99 1006.0
20260506120028 45 270 0.9 0.9 0.00 0.38 0.38 99 1005.9
20260506115526 45 278 0.9 0.9 0.00 0.38 0.38 99 1006.0
20260506115024 45 252 0.0 0.0 0.00 0.38 0.38 99 1006.1
20260506114521 45 252 0.0 0.0 0.00 0.38 0.38 99 1006.1
20260506114020 44 260 0.0 0.0 0.00 0.38 0.38 99 1005.9
20260506113517 44 267 0.9 0.9 0.00 0.38 0.38 99 1005.7
20260506113015 44 255 0.0 0.0 0.00 0.38 0.38 99 1005.4
20260506112511 44 250 0.0 0.0 0.00 0.38 0.38 99 1005.0
20260506112008 44 279 0.9 0.9 0.00 0.38 0.38 99 1005.0
20260506111506 44 276 0.9 0.9 0.00 0.38 0.38 99 1004.9
20260506111003 44 273 0.9 1.7 0.00 0.38 0.38 99 1005.2
20260506110501 44 258 0.9 0.9 0.00 0.38 0.38 99 1004.7
20260506105957 44 252 0.0 0.0 0.00 0.38 0.38 99 1005.0
20260506105453 44 287 0.9 0.9 0.00 0.38 0.38 99 1005.2
20260506104951 44 333 1.7 1.7 0.05 0.38 0.38 99 1005.3
20260506104449 44 5 1.7 1.7 0.05 0.38 0.38 99 1005.5
20260506103947 44 253 0.0 0.9 0.00 0.37 0.37 99 1005.2
20260506103444 44 258 1.7 1.7 0.00 0.37 0.37 99 1004.9
20260506102940 44 320 0.9 1.7 0.00 0.37 0.37 99 1004.7
20260506102439 44 268 1.7 1.7 0.00 0.37 0.37 99 1004.7
20260506101935 44 308 0.9 0.9 0.00 0.37 0.37 99 1004.4
20260506101432 44 294 1.7 1.7 0.00 0.37 0.37 99 1004.2
20260506100929 44 39 1.7 1.7 0.00 0.37 0.37 99 1003.7
20260506100428 44 282 0.9 0.9 0.00 0.37 0.37 99 1003.6
20260506095925 44 278 0.9 0.9 0.07 0.37 0.37 99 1003.6
20260506095424 44 256 0.0 0.9 0.07 0.37 0.37 99 1003.4
20260506094919 45 287 0.9 1.7 0.00 0.36 0.36 99 1003.7
20260506094418 45 305 0.9 0.9 0.00 0.36 0.36 99 1003.9
20260506093915 45 264 0.0 0.9 0.00 0.36 0.36 99 1004.0
20260506093413 45 272 0.0 0.9 0.00 0.36 0.36 99 1003.8
20260506092911 45 28 0.9 0.9 0.00 0.36 0.36 99 1004.2
20260506092409 45 276 0.9 0.9 0.00 0.36 0.36 99 1004.0
20260506091905 45 273 0.0 0.9 0.05 0.36 0.36 99 1003.9
20260506091403 45 7 1.7 1.7 0.05 0.36 0.36 99 1003.7
20260506090900 45 357 1.7 1.7 0.07 0.35 0.35 99 1003.8
20260506090358 45 289 0.9 1.7 0.07 0.35 0.35 99 1003.8
20260506085854 46 286 1.7 1.7 0.05 0.34 0.34 99 1004.3
20260506085351 46 301 1.7 1.7 0.12 0.34 0.34 99 1004.2
20260506084847 46 340 1.7 2.6 0.12 0.33 0.33 99 1004.3
20260506084344 46 323 1.7 1.7 0.17 0.32 0.32 99 1004.0
20260506083840 46 342 1.7 1.7 0.19 0.31 0.31 99 1003.9
20260506083338 47 345 2.6 2.6 0.12 0.29 0.29 99 1003.6
20260506082835 47 6 0.0 0.9 0.19 0.28 0.28 99 1003.8
20260506082332 47 250 0.0 0.0 0.19 0.27 0.27 99 1003.7
20260506081827 47 321 0.9 1.7 0.12 0.26 0.26 99 1003.9
20260506081326 47 288 0.9 1.7 0.05 0.25 0.25 99 1003.7
20260506080823 47 296 1.7 1.7 0.00 0.24 0.24 99 1003.3
20260506080319 47 333 0.9 1.7 0.07 0.24 0.24 99 1003.5
20260506073304 48 302 0.9 0.9 0.05 0.23 0.23 99 1002.9
20260506072800 49 281 0.9 0.9 0.12 0.23 0.23 99 1003.2
20260506072258 49 267 0.0 0.9 0.07 0.22 0.22 99 1003.1
20260506071755 49 295 0.9 0.9 0.05 0.21 0.21 99 1003.0
20260506071254 49 280 0.9 0.9 0.17 0.21 0.21 99 1003.1
20260506070750 49 302 0.9 0.9 0.19 0.20 0.20 99 1003.2
20260506070247 49 54 0.9 1.7 0.12 0.18 0.18 99 1003.1
20260506062224 50 260 0.9 0.9 0.12 0.11 0.11 99 1002.9
20260506061720 50 254 0.0 0.0 0.12 0.10 0.10 99 1003.0
20260506061218 50 257 0.0 0.0 0.07 0.09 0.09 99 1003.1
20260506060716 50 247 0.9 0.9 0.05 0.08 0.08 99 1003.2
20260506060213 50 259 0.0 0.0 0.05 0.08 0.08 99 1003.2
20260506051145 50 254 0.0 0.0 0.00 0.01 0.01 99 1003.6
20260506050643 50 261 0.0 0.0 0.00 0.01 0.01 99 1003.7
20260506050140 50 255 0.0 0.0 0.00 0.01 0.01 99 1003.8
20260506045133 50 277 0.9 0.9 0.00 0.01 0.01 99 1003.7
20260506044631 50 257 0.0 0.9 0.00 0.01 0.01 99 1003.9
20260506044128 50 252 0.0 0.0 0.00 0.01 0.01 99 1003.8
20260506043625 50 254 0.0 0.0 0.00 0.01 0.01 99 1003.9
20260506043123 50 259 0.0 0.0 0.00 0.01 0.01 99 1004.0
20260506042622 51 289 0.9 0.9 0.00 0.01 0.01 99 1004.1
20260506042119 51 258 0.9 0.9 0.00 0.01 0.01 99 1004.0
20260506041618 51 257 0.9 0.9 0.00 0.01 0.01 99 1004.1
20260506041114 51 269 0.9 0.9 0.05 0.01 0.01 99 1003.9
20260506040612 51 261 0.9 1.7 0.05 0.01 0.01 99 1004.1
20260506040108 52 275 0.9 0.9 0.12 0.69 0.69 99 1003.9
20260506035605 52 265 0.9 0.9 0.19 0.69 0.69 99 1004.0
20260506035102 53 281 1.7 1.7 0.17 0.68 0.68 99 1004.1
20260506034559 55 295 1.7 1.7 0.24 0.67 0.67 99 1004.3
20260506034056 57 264 4.3 5.2 0.24 0.65 0.65 99 1004.3
20260506033553 57 265 4.3 5.2 0.31 0.63 0.63 99 1004.2
20260506033050 57 278 4.3 5.2 0.38 0.61 0.61 99 1004.2
20260506032548 57 276 5.2 5.2 0.31 0.58 0.58 99 1004.3
20260506032044 57 266 5.2 6.1 0.35 0.55 0.55 99 1004.5
20260506031542 57 273 4.3 5.2 0.35 0.53 0.53 99 1004.6
20260506031038 57 261 4.3 6.1 0.19 0.50 0.50 99 1004.5
20260506030537 57 251 1.7 1.7 0.05 0.47 0.47 99 1004.6
20260506030034 57 239 0.9 0.9 0.19 0.47 0.47 99 1004.4
20260506025531 57 265 1.7 1.7 0.19 0.46 0.46 99 1004.5
20260506025026 57 277 2.6 4.3 0.19 0.45 0.45 99 1004.4
20260506024524 57 253 2.6 2.6 0.19 0.43 0.43 99 1004.6
20260506024020 57 253 0.0 0.0 0.17 0.42 0.42 99 1004.6
20260506023516 57 276 4.3 5.2 0.17 0.40 0.40 99 1004.6
20260506023014 58 256 1.7 2.6 0.19 0.39 0.39 99 1004.7
20260506022511 58 265 0.9 0.9 0.24 0.38 0.38 99 1004.6
20260506022009 58 265 2.6 2.6 0.24 0.36 0.36 99 1004.7
20260506021506 58 251 2.6 2.6 0.19 0.34 0.34 99 1005.0
20260506021003 58 270 4.3 5.2 0.19 0.32 0.32 99 1004.7
20260506020501 58 258 3.5 4.3 0.17 0.31 0.31 99 1004.6
20260506015957 58 262 3.5 4.3 0.12 0.29 0.29 99 1004.7
20260506015455 58 261 3.5 4.3 0.12 0.28 0.28 99 1004.9
20260506014952 58 262 2.6 2.6 0.12 0.27 0.27 99 1005.0
20260506014449 58 238 2.6 2.6 0.12 0.26 0.26 99 1004.6
20260506013945 58 290 1.7 1.7 0.05 0.25 0.25 99 1004.5
20260506013443 58 259 2.6 2.6 0.00 0.24 0.24 99 1004.5
20260506012939 58 253 0.9 1.7 0.07 0.24 0.24 99 1004.3
20260506012436 58 257 1.7 2.6 0.07 0.24 0.24 99 1004.2
20260506011933 58 259 2.6 4.3 0.00 0.23 0.23 99 1004.2
20260506011430 58 262 1.7 1.7 0.00 0.23 0.23 99 1004.2
20260506010927 58 188 2.6 4.3 0.00 0.23 0.23 99 1004.2